Location: Unspecified
(0.0000°N, 0.0000°E)
Time: 00:44:07
(UTC+00:00)

Vanguard 3 - All Passes

Search period start: 21 July 2017 00:00
Search period end: 31 July 2017 00:00
Orbit: 508 x 3265 km, 33.3° (Epoch: 19 July)

Date Brightness Start Highest point End Pass type
(mag) Time Alt. Az. Time Alt. Az. Time Alt. Az.
21 Jul - 00:36:39 10° S 00:38:43 11° S 00:40:37 10° SSE night (unlit)
21 Jul - 02:48:17 10° SSW 02:54:31 25° SSE 02:58:43 10° E visible
21 Jul - 05:01:56 10° WSW 05:06:42 40° NW 05:10:15 10° NNE visible
21 Jul - 13:56:27 10° NNW 14:06:41 36° NE 14:22:09 10° E daylight
21 Jul - 16:07:35 10° NW 16:22:11 88° SW 16:42:33 10° SE daylight
21 Jul - 18:23:42 10° W 18:40:16 41° SSW 18:57:53 10° SE visible
21 Jul - 20:48:52 10° WSW 21:00:41 18° SSW 21:10:57 10° SSE visible
21 Jul - 23:18:30 10° SSW 23:21:52 11° S 23:24:54 10° SSE visible
22 Jul - 01:33:30 10° SSW 01:39:39 18° SSE 01:44:08 10° ESE night (unlit)
22 Jul - 03:46:45 10° SW 03:53:29 71° SSE 03:57:42 10° ENE visible
22 Jul - 12:44:49 10° N 12:51:33 19° NE 13:00:47 10° ENE daylight
22 Jul - 14:53:47 10° NW 15:05:58 65° NE 15:25:00 10° ESE daylight
22 Jul - 17:07:07 10° WNW 17:22:43 57° SSW 17:42:20 10° SE daylight
22 Jul - 19:27:22 10° WSW 19:42:17 26° SSW 19:56:31 10° SSE visible
22 Jul - 21:56:41 10° SSW 22:03:58 13° S 22:10:15 10° SSE visible
23 Jul - 00:17:52 10° SSW 00:23:52 14° S 00:28:34 10° SE night (unlit)
23 Jul - 02:31:39 10° SW 02:39:32 36° SSE 02:44:24 10° E visible
23 Jul - 04:46:40 10° W 04:51:28 29° NW 04:54:59 10° NNE visible
23 Jul - 13:40:57 10° NNW 13:50:38 40° NE 14:06:01 10° ESE daylight
23 Jul - 15:52:09 10° WNW 16:05:46 79° SW 16:25:53 10° SE daylight
23 Jul - 18:08:31 10° W 18:24:07 37° SSW 18:41:25 10° SSE visible
23 Jul - 20:33:52 10° SW 20:45:20 18° SSW 20:55:31 10° SSE visible
23 Jul - 23:00:29 10° SSW 23:06:59 13° S 23:12:21 10° SSE visible
24 Jul - 01:16:15 10° SSW 01:24:41 24° SSE 01:30:16 10° ESE night (unlit)
24 Jul - 03:30:45 10° SW 03:38:19 83° NW 03:42:50 10° NE visible
24 Jul - 12:29:16 10° N 12:35:53 21° NE 12:45:19 10° E daylight
24 Jul - 14:38:20 10° NW 14:49:43 73° NE 15:08:24 10° ESE daylight
24 Jul - 16:51:52 10° WNW 17:06:27 50° SSW 17:25:37 10° SE daylight
24 Jul - 19:12:30 10° WSW 19:26:33 24° SSW 19:40:25 10° SSE visible
24 Jul - 21:40:29 10° SSW 21:48:57 14° S 21:56:11 10° SSE visible
25 Jul - 00:00:13 10° SSW 00:08:54 19° SSE 00:15:10 10° SE night (unlit)
25 Jul - 02:15:03 10° SW 02:24:26 49° SSE 02:29:51 10° ENE visible
25 Jul - 04:31:29 10° W 04:36:10 23° NW 04:39:37 10° NNE visible
25 Jul - 13:25:31 10° NNW 13:34:37 45° NE 13:49:46 10° ESE daylight
25 Jul - 15:36:51 10° WNW 15:49:32 70° SW 16:09:05 10° SE daylight
25 Jul - 17:53:34 10° W 18:08:08 32° SSW 18:24:53 10° SSE daylight
25 Jul - 20:18:49 10° SW 20:30:04 17° S 20:40:15 10° SSE visible
25 Jul - 22:43:01 10° SSW 22:52:00 16° S 22:59:03 10° SE visible
26 Jul - 00:59:09 10° SW 01:09:38 32° SSE 01:16:04 10° E night (unlit)
26 Jul - 03:14:47 10° WSW 03:23:02 63° NW 03:27:51 10° NE visible
26 Jul - 12:13:46 10° N 12:20:13 23° NE 12:29:44 10° E daylight
26 Jul - 14:23:02 10° NW 14:33:35 83° NE 14:51:42 10° SE daylight
26 Jul - 16:36:48 10° W 16:50:23 44° SSW 17:08:48 10° SE daylight
26 Jul - 18:57:48 10° WSW 19:10:59 22° SSW 19:24:21 10° SSE visible
26 Jul - 21:24:06 10° SSW 21:33:54 16° S 21:42:12 10° SE visible
26 Jul - 23:42:49 10° SSW 23:53:49 24° SSE 00:01:17 10° ESE night (unlit)
27 Jul - 01:58:28 10° SW 02:09:14 66° SSE 02:15:09 10° ENE visible
27 Jul - 04:16:22 10° W 04:20:49 19° NW 04:24:10 10° N visible
27 Jul - 13:10:11 10° NW 13:18:40 51° NE 13:33:25 10° ESE daylight
27 Jul - 15:21:43 10° WNW 15:33:28 61° SSW 15:52:08 10° SE daylight
27 Jul - 17:38:49 10° WSW 17:52:20 29° SSW 18:08:15 10° SSE daylight
27 Jul - 20:03:38 10° SW 20:14:52 17° S 20:25:11 10° SSE visible
27 Jul - 22:25:44 10° SSW 22:36:55 20° SSE 22:45:20 10° SE visible
28 Jul - 00:42:07 10° SW 00:54:26 41° SSE 01:01:37 10° E night (unlit)
28 Jul - 02:58:48 10° WSW 03:07:39 50° NW 03:12:47 10° NE visible
28 Jul - 11:58:20 10° NNW 12:04:32 26° NE 12:14:03 10° E daylight
28 Jul - 14:07:50 10° NW 14:17:36 87° SW 14:34:53 10° SE daylight
28 Jul - 16:21:56 10° W 16:34:29 38° SSW 16:51:52 10° SE daylight
28 Jul - 18:43:12 10° SW 18:55:32 20° SSW 19:08:20 10° SSE visible
28 Jul - 21:07:35 10° SSW 21:18:48 18° S 21:28:12 10° SE visible
28 Jul - 23:25:32 10° SSW 23:38:37 30° SSE 23:47:06 10° E visible
29 Jul - 01:41:53 10° SW 01:53:52 83° SE 02:00:18 10° ENE night (unlit)
29 Jul - 04:01:23 10° WNW 04:05:25 16° NW 04:08:35 10° N visible
29 Jul - 12:54:56 10° NW 13:02:48 59° NE 13:16:58 10° ESE daylight
29 Jul - 15:06:45 10° WNW 15:17:36 52° SSW 15:35:07 10° SE daylight
29 Jul - 17:24:17 10° WSW 17:36:42 25° SSW 17:51:36 10° SSE daylight
29 Jul - 19:48:17 10° SW 19:59:41 17° S 20:10:19 10° SE visible
29 Jul - 22:08:33 10° SSW 22:21:41 24° SSE 22:31:20 10° ESE visible
30 Jul - 00:25:06 10° SW 00:39:05 52° SSE 00:46:59 10° ENE night (unlit)
30 Jul - 02:42:51 10° WSW 02:52:09 41° NW 02:57:38 10° NNE visible
30 Jul - 11:42:57 10° NNW 11:48:53 30° NE 11:58:17 10° E daylight
30 Jul - 13:52:47 10° WNW 14:01:46 75° SW 14:18:01 10° SE daylight
30 Jul - 16:07:18 10° W 16:18:47 32° SSW 16:34:51 10° SE daylight
30 Jul - 18:28:38 10° SW 18:40:13 19° S 18:52:26 10° SSE visible
30 Jul - 20:50:59 10° SSW 21:03:35 20° S 21:14:07 10° SE visible
30 Jul - 23:08:19 10° SW 23:23:15 37° SSE 23:32:40 10° E visible
